AirNav   Air Wisconsin pilot careers
 
 795 users online  

KALX Thomas C Russell Field Airport
Alexander City, Alabama, USA

GOING TO ALEXANDER CITY?


FAA INFORMATION EFFECTIVE 07 DECEMBER 2017

Location

FAA Identifier: ALX
Lat/Long: 32-54-53.1000N / 085-57-46.6000W
32-54.885000N / 085-57.776667W
32.9147500 / -85.9629444
(estimated)
Elevation: 685.8 ft. / 209.0 m (surveyed)
Variation: 04W (2015)
From city: 2 miles SW of ALEXANDER CITY, AL
Time zone: UTC -6 (UTC -5 during Daylight Saving Time)
Zip code: 35010

Airport Operations

Airport use: Open to the public
Activation date: 04/1940
Control tower: no
ARTCC: ATLANTA CENTER
FSS: ANNISTON FLIGHT SERVICE STATION
NOTAMs facility: ALX (NOTAM-D service available)
Attendance: MON-FRI 0800-1700
UNATTENDED WEEKENDS.
Wind indicator: lighted
Segmented circle: yes
Lights: MIRL RY 18/36 ACTVT - CTAF.
Beacon: white-green (lighted land airport)
Operates sunset to sunrise.

Airport Communications

CTAF/UNICOM: 122.7
WX AWOS-3: 118.325 (256-329-1820)
MONTGOMERY APPROACH: 121.2
MONTGOMERY DEPARTURE: 121.2
  • APCH/DEP SVC PRVDD BY ATLANTA ARTCC ON FREQS 120.45/298.850 (COLUMBUS RCAG) WHEN MONTGOMERY APCH CTL CLSD.

Nearby radio navigation aids

VOR radial/distance  VOR name  Freq  Var
TGEr328/29.8TUSKEGEE VOR/DME117.3002E
LGCr257/38.9LAGRANGE VORTAC115.6001E
TDGr172/39.8TALLADEGA VOR/DME108.8002E

 
NDB name  Hdg/Dist  Freq  Var  ID
GRAGG-WADE085/32.933801WGGY --. --. -.--

Airport Services

Fuel available: 100LL JET-A
FUEL 24 HR CREDIT CARD SVC AVBL. AVGAS ONLY.
Parking: tiedowns
Airframe service: MAJOR
Powerplant service: MAJOR
Bottled oxygen: NONE
Bulk oxygen: NONE

Runway Information

Runway 18/36

Dimensions: 5422 x 96 ft. / 1653 x 29 m
Surface: asphalt/grooved, in fair condition
Weight bearing capacity: 
Single wheel: 30.0
Runway edge lights: medium intensity
RUNWAY 18  RUNWAY 36
Latitude: 32-55.331188N32-54.438037N
Longitude: 085-57.800010W085-57.754248W
Elevation: 685.8 ft.611.9 ft.
Gradient: 1.4% DOWN1.4% UP
Traffic pattern: leftleft
Runway heading: 182 magnetic, 178 true002 magnetic, 358 true
Displaced threshold: 623 ft.no
Markings: nonprecision, in good conditionnonprecision, in good condition
Visual slope indicator: 2-box VASI on left (3.00 degrees glide path)
VASI OTS INDEF.
4-light PAPI on left (3.00 degrees glide path)
Runway end identifier lights: yes
Touchdown point: yes, no lightsyes, no lights
Obstructions: 47 ft. trees, 424 ft. from runway, 111 ft. left of centerline, 4:1 slope to clear
APCH RATIO 22:1 FROM DSPLCD THLD.
24 ft. trees, 524 ft. from runway, 192 ft. right of centerline, 13:1 slope to clear

Airport Ownership and Management from official FAA records

Ownership: Publicly-owned
Owner: CITY OF ALEXANDER CITY
PO BOX 552
ALEXANDER CITY, AL 35011
Phone (256) 329-9057
Manager: MIKE SMITH
997 T.C. RUSSELL FIELD
ALEXANDER CITY, AL 35010
Phone 256-329-9057
ON CALL PHONE 256-392-2452.

Airport Operational Statistics

Aircraft based on the field: 33
Single engine airplanes: 26
Multi engine airplanes: 6
Jet airplanes: 1
    
Aircraft operations: avg 91/day *
79% transient general aviation
12% local general aviation
9% military
* for 12-month period ending 06 July 2017

Additional Remarks

TWY LGTS FOR TWY TURNOFF ONLY.

Instrument Procedures

NOTE: All procedures below are presented as PDF files. If you need a reader for these files, you should download the free Adobe Reader.

NOT FOR NAVIGATION. Please procure official charts for flight.
FAA instrument procedures published for use between 7 December 2017 at 0901Z and 4 January 2018 at 0900Z.

 
IAPs - Instrument Approach Procedures
RNAV (GPS) RWY 18 **CHANGED**   download (208KB)
RNAV (GPS) RWY 36 **CHANGED**   download (219KB)
NOTE: Special Alternate Minimums apply **CHANGED**   download (562KB)
NOTE: Special Take-Off Minimums/Departure Procedures apply   download (258KB)

Other nearby airports with instrument procedures:

KSCD - Merkel Field Sylacauga Municipal Airport (23 nm NW)
08A - Wetumpka Municipal Airport (30 nm SW)
06A - Moton Field Municipal Airport (31 nm SE)
KAUO - Auburn University Regional Airport (32 nm SE)
02A - Chilton County Airport (33 nm W)
 
Loc | Ops | Rwys | IFR | FBO | Links
Com | Nav | Svcs | Stats | Notes


 
Area around KALX (Thomas C Russell Field Airport)
 
Road maps at: MapQuest Bing Google
 
Aerial photo
WARNING: Photo may not be current or correct
Aerial photo of KALX (Thomas C Russell Field Airport)
Photo courtesy of Jay Taffet / FBO Capital
Photo taken 24-Oct-2013
looking north.

Do you have a better or more recent aerial photo of Thomas C Russell Field Airport that you would like to share? If so, please send us your photo.

 
Sectional chart

 
Airport distance calculator
Flying to Thomas C Russell Field Airport? Find the distance to fly.

From to KALX

Sunrise and sunset
Times for 12-Dec-2017
 Local
(UTC-6)
 Zulu
(UTC)
Morning civil twilight06:1112:11
Sunrise06:3812:38
Sunset16:3722:37
Evening civil twilight17:0423:04

Current date and time
Zulu (UTC)  13-Dec-2017 03:33:31
Local (UTC-6)  12-Dec-2017 21:33:31
 
METAR
KALX 130310Z AUTO 29003KT 10SM CLR 04/M02 A3006 RMK AO2 T00381016
TAF
KMXF 
39nm SW 
122000Z 1220/1402 31012G20KT 9999 FEW035 QNH3000INS BECMG 1222/1223 33009KT 9999 SKC QNH3007INS BECMG 1315/1316 24010G15KT 9999 FEW100 QNH3000INS BECMG 1322/1323 25007KT 9999 SKC QNH2994INS TX15/1220Z TNM01/1310Z LAST NO AMDS AFT 1304 NEXT 1312
KASN 
40nm N 
122140Z 1222/1318 31010G16KT P6SM FEW050 FM130000 31007KT P6SM SKC FM130600 00000KT P6SM SKC
KANB 
41nm N 
121721Z 1218/1318 30013G21KT P6SM OVC050 FM122200 30013G19KT P6SM SKC FM130000 31008KT P6SM SKC FM130600 00000KT P6SM SKC FM131600 23007KT P6SM SKC AMD NOT SKED
KMGM 
43nm SW 
121721Z 1218/1318 32014G20KT P6SM SKC FM122300 30009KT P6SM SKC FM130700 00000KT P6SM SKC FM131700 22006KT P6SM SKC
KEET 
44nm W 
121721Z 1218/1318 34012G19KT P6SM BKN050 FM122300 31007KT P6SM SKC FM130600 00000KT P6SM SKC FM131700 21008KT P6SM SKC
NOTAMs
Click for the latest NOTAMs
NOTAMs are issued by the DoD/FAA and will open in a separate window not controlled by AirNav.

 

 
 

FBO, Fuel Providers, and Aircraft Ground Support

  
 Business Name 
 
 Contact 
 
 Services / Description 
 
Fuel Prices
 
Comments
  
Alexander City Flying Service UNICOM 122.70
256-329-9057
Attention Agriculture Operators: There are city ordinances affecting loading operations on airport property. Please call airport manager before arriving to conduct loading operations at (256)329-9057.

More info about Alexander City Flying Service
Shell
100LL Jet A
FS --- $3.80 
SS $3.70 --- 
 Updated 12-Dec-2017
  no comments
FS=Full service
SS=Self service
Update Fuel Prices
 

Would you like to see your business listed on this page?

 If your business provides an interesting product or service to pilots, flight crews, aircraft, or users of the Thomas C Russell Field Airport, you should consider listing it here.  To start the listing process, click on the button below
 
Add a business
 

Other Pages about Thomas C Russell Field Airport

www.alexandercityonline.com/airport.html
 
Update a link
 
Copyright © AirNav, LLC. All rights reserved. Privacy Policy  Contact